This is the latest recevied weather packets stored in our database for station/object KC5DAQ-27. If no packets are shown the sender has not sent any weather packets the latest 1 day(s).
| Time | Temp. | Humidity | Pressure | Rain* | Wind** | Luminosity | Snow |
|---|---|---|---|---|---|---|---|
| 1777980387 | 21.11° C | 95% | 999.6 hPa | 0.25 mm | 2.24 m/s, 188° | 0 W/m² | - |
| 1777980327 | 21.11° C | 95% | 999.7 hPa | 0.25 mm | 2.24 m/s, 185° | 0 W/m² | - |
| 1777980266 | 21.11° C | 95% | 999.8 hPa | 0.25 mm | 2.24 m/s, 172° | 0 W/m² | - |
| 1777980206 | 21.11° C | 95% | 999.8 hPa | 0.25 mm | 2.24 m/s, 173° | 0 W/m² | - |
| 1777980147 | 21.11° C | 95% | 999.8 hPa | 0.25 mm | 2.24 m/s, 197° | 0 W/m² | - |
| 1777980086 | 21.11° C | 95% | 999.9 hPa | 0.25 mm | 2.24 m/s, 183° | 0 W/m² | - |
| 1777980026 | 21.11° C | 95% | 1000 hPa | 0.25 mm | 1.79 m/s, 185° | 0 W/m² | - |
| 1777979966 | 21.11° C | 95% | 1000 hPa | 0.25 mm | 1.79 m/s, 162° | 0 W/m² | - |
| 1777979906 | 21.11° C | 95% | 1000.1 hPa | 0.25 mm | 2.24 m/s, 188° | 0 W/m² | - |
| 1777979846 | 21.11° C | 95% | 1000.1 hPa | 0.25 mm | 2.24 m/s, 189° | 0 W/m² | - |
| 1777979785 | 21.11° C | 95% | 1000 hPa | 0.25 mm | 1.79 m/s, 188° | 0 W/m² | - |
| 1777979727 | 21.11° C | 95% | 1000.1 hPa | 0.25 mm | 2.24 m/s, 217° | 0 W/m² | - |
| 1777979666 | 21.11° C | 95% | 1000 hPa | 0.25 mm | 2.68 m/s, 196° | 0 W/m² | - |
| 1777979605 | 21.11° C | 95% | 1000 hPa | 0.25 mm | 2.68 m/s, 196° | 0 W/m² | - |
| 1777979546 | 21.11° C | 95% | 1000 hPa | 0.25 mm | 2.68 m/s, 182° | 0 W/m² | - |
| 1777979485 | 21.11° C | 95% | 999.9 hPa | 0.25 mm | 2.68 m/s, 169° | 0 W/m² | - |
| 1777979426 | 21.11° C | 95% | 999.8 hPa | 0.25 mm | 3.13 m/s, 185° | 0 W/m² | - |
| 1777979365 | 21.11° C | 95% | 999.7 hPa | 0.25 mm | 2.68 m/s, 176° | 0 W/m² | - |
| 1777979306 | 21.11° C | 95% | 999.7 hPa | 0.25 mm | 2.68 m/s, 179° | 0 W/m² | - |
| 1777979246 | 21.11° C | 95% | 999.7 hPa | 0.25 mm | 2.68 m/s, 172° | 0 W/m² | - |
| 1777979185 | 21.11° C | 95% | 999.6 hPa | 0.25 mm | 2.24 m/s, 178° | 0 W/m² | - |
| 1777979126 | 21.11° C | 94% | 999.6 hPa | 0.25 mm | 2.68 m/s, 164° | 0 W/m² | - |
| 1777979065 | 21.11° C | 94% | 999.6 hPa | 0.25 mm | 2.24 m/s, 175° | 0 W/m² | - |
| 1777979008 | 21.11° C | 94% | 999.6 hPa | 0.25 mm | 2.24 m/s, 197° | 0 W/m² | - |
| 1777978946 | 21.11° C | 94% | 999.6 hPa | 0.25 mm | 2.68 m/s, 185° | 0 W/m² | - |
* Rain latest hour (hover to see other rain measurements)
** Current wind speed in m/s (hover to see current wind gust speed)